YZ-1 R/B (44544 NORAD) Tracking and Keplerian Element Data
This shows tracking and keplerian element data for the satellite.
Feedback or suggestion? Click here.
Element | Value |
Catalog | 44544 |
Name | YZ-1 R/B |
Epoch Orbit | 16 |
Epoch Day | 274.35070531 |
Epoch Year | 2019 |
RAAN | 265.8786 |
Inclination | 55.1277 |
Eccentricity | 0.003222 |
Argument of Perigee | 233.0477 |
Mean Anonmoly | 126.6393 |
Mean Motion | 1.80433454 |
Decay Rate | 0 |
L1 | 1 44544U 19061C 19274.35070531 -.00000000 00000-0 10000-3 0 9990 |
L2 | 2 44544 55.1277 265.8786 0032220 233.0477 126.6393 1.80433454 166 |
Live tracking and technical data element details for YZ-1 R/B (NORAD 44544). YZ-1 R/B can be tracked NOW for your location showing map with azimuth and elevation plus other details from your city location.
Track the satellite on the map from your city or location and see movement details for azimuth, elevation, latitude, longitude, range, height, and movement on the map or in text.
IsCatalogInMostPopularTable: catalog: 44544, numindb: 20
Update: records affected: 1
GetName: 44544 YZ-1 R/B
Hit Count: updated at: Thu, 12 Dec 2019 00:48:59 GMT